Colwell, IA

8:55 AM CST on February 27, 2017 (GMT -0600)
Charles City Municipal

Weather History for KCCY - September, 2012

Change the Weather History Date:

Sunday, September 30, 2012

  Actual Average Record
Temperature  
Mean Temperature 62 °F -  
Max Temperature 78 °F 71 °F 90 °F (1952)
Min Temperature 46 °F 45 °F 27 °F (1984)
Degree Days  
Heating Degree Days 3    
Growing Degree Days 12 (Base 50)    
Moisture  
Dew Point 35 °F    
Average Humidity 46    
Maximum Humidity 82    
Minimum Humidity 10    
Precipitation  
Precipitation 0.00 in - - ()
Sea Level Pressure  
Sea Level Pressure 29.97 in    
Wind  
Wind Speed 4 mph (NE)    
Max Wind Speed 8 mph    
Max Gust Speed -    
Visibility 10 miles    
Events      
Averages and records for this station are not official NWS values.
T = Trace of Precipitation, MM = Missing Value Source: NWS Daily Summary

Daily Weather History Graph

Daily Weather History Graph

Search for Another Location

Airport or City:

Trip Planner

Search our weather history database for the weather conditions in past years. The results will help you decide how hot, cold, wet, or windy it might be!

Date:

Astronomy

Sep. 30, 2012 Rise Set
Actual Time 7:07 AM CDT 6:52 PM CDT
Civil Twilight 6:38 AM CDT 7:20 PM CDT
Nautical Twilight 6:05 AM CDT 7:53 PM CDT
Astronomical Twilight 5:32 AM CDT 8:27 PM CDT
Moon 6:53 PM CDT (9/30) 7:40 AM CDT (9/30)
Length of Visible Light 12h 41m
Length of Day
11h 45m
Full, 100% of the Moon is Illuminated
Sep 30
Full
Oct 8
Last Quarter
Oct 15
New
Oct 21
First Quarter
Oct 29
Full

Hourly Weather History & Observations

Time (CDT) Temp. Windchill Dew Point Humidity Pressure Visibility Wind Dir Wind Speed Gust Speed Precip Events Conditions
12:15 AM 51.8 °F - 42.8 °F 71% 30.03 in 10.0 mi NW 3.5 mph - N/A   Clear
12:55 AM 51.8 °F - 42.8 °F 71% 30.02 in 10.0 mi NW 3.5 mph - N/A   Clear
1:15 AM 51.8 °F - 42.8 °F 71% 30.02 in 10.0 mi Calm Calm - N/A   Clear
1:35 AM 50.0 °F - 42.8 °F 76% 30.02 in 10.0 mi Calm Calm - N/A   Clear
1:55 AM 51.8 °F - 42.8 °F 71% 30.01 in 10.0 mi North 5.8 mph - N/A   Clear
2:15 AM 53.6 °F - 42.8 °F 67% 30.02 in 10.0 mi North 5.8 mph - N/A   Clear
2:35 AM 50.0 °F - 42.8 °F 76% 30.01 in 10.0 mi NW 3.5 mph - N/A   Clear
2:55 AM 50.0 °F - 42.8 °F 76% 30.01 in 7.0 mi North 4.6 mph - N/A   Clear
3:15 AM 48.2 °F - 41.0 °F 76% 30.01 in 10.0 mi Calm Calm - N/A   Clear
3:35 AM 50.0 °F - 42.8 °F 76% 30.01 in 10.0 mi Calm Calm - N/A   Clear
3:55 AM 48.2 °F - 41.0 °F 76% 30.01 in 10.0 mi Calm Calm - N/A   Clear
4:15 AM 46.4 °F - 41.0 °F 81% 30.00 in 10.0 mi Calm Calm - N/A   Clear
4:35 AM 48.2 °F - 41.0 °F 76% 30.00 in 10.0 mi NW 3.5 mph - N/A   Clear
4:55 AM 48.2 °F - 41.0 °F 76% 30.00 in 10.0 mi NW 4.6 mph - N/A   Clear
5:15 AM 48.2 °F - 41.0 °F 76% 30.00 in 10.0 mi NW 3.5 mph - N/A   Clear
5:35 AM 48.2 °F - 41.0 °F 76% 29.99 in 10.0 mi North 4.6 mph - N/A   Clear
5:55 AM 46.4 °F 44.3 °F 39.2 °F 76% 29.99 in 10.0 mi NNW 4.6 mph - N/A   Clear
6:15 AM 46.4 °F - 39.2 °F 76% 29.99 in 7.0 mi Calm Calm - N/A   Clear
6:35 AM 48.2 °F - 41.0 °F 76% 29.99 in 10.0 mi North 4.6 mph - N/A   Clear
6:55 AM 48.2 °F - 41.0 °F 76% 29.99 in 10.0 mi NNE 5.8 mph - N/A   Clear
7:15 AM 46.4 °F 43.5 °F 41.0 °F 81% 29.99 in 7.0 mi NNE 5.8 mph - N/A   Clear
7:35 AM 48.2 °F - 41.0 °F 76% 29.99 in 7.0 mi NE 4.6 mph - N/A   Clear
7:55 AM 48.2 °F - 42.8 °F 82% 29.99 in 7.0 mi Calm Calm - N/A   Clear
8:15 AM 51.8 °F - 42.8 °F 71% 29.99 in 10.0 mi NE 5.8 mph - N/A   Clear
8:35 AM 53.6 °F - 42.8 °F 67% 29.99 in 10.0 mi NE 4.6 mph - N/A   Clear
9:15 AM 60.8 °F - 42.8 °F 52% 29.99 in 10.0 mi NE 5.8 mph - N/A   Clear
9:35 AM 62.6 °F - 42.8 °F 48% 29.99 in 10.0 mi Calm Calm - N/A   Clear
9:55 AM 64.4 °F - 39.2 °F 40% 30.00 in 10.0 mi Calm Calm - N/A   Clear
10:15 AM 68.0 °F - 39.2 °F 35% 29.99 in 10.0 mi NNE 5.8 mph - N/A   Clear
10:35 AM 71.6 °F - 37.4 °F 29% 29.99 in 10.0 mi NNE 5.8 mph - N/A   Clear
10:55 AM 71.6 °F - 35.6 °F 27% 29.99 in 10.0 mi NE 6.9 mph - N/A   Clear
11:15 AM 71.6 °F - 35.6 °F 27% 29.99 in 10.0 mi ENE 5.8 mph - N/A   Clear
11:35 AM 73.4 °F - 33.8 °F 23% 29.99 in 10.0 mi ENE 8.1 mph - N/A   Clear
11:55 AM 73.4 °F - 30.2 °F 20% 29.99 in 10.0 mi ENE 4.6 mph - N/A   Clear
12:15 PM 75.2 °F - 30.2 °F 19% 29.99 in 10.0 mi ENE 5.8 mph - N/A   Clear
12:35 PM 75.2 °F - 24.8 °F 15% 29.99 in 10.0 mi NE 5.8 mph - N/A   Clear
12:55 PM 75.2 °F - 24.8 °F 15% 29.98 in 10.0 mi ENE 8.1 mph - N/A   Clear
1:15 PM 75.2 °F - 21.2 °F 13% 29.97 in 10.0 mi NE 6.9 mph - N/A   Clear
1:35 PM 77.0 °F - 24.8 °F 14% 29.96 in 10.0 mi East 8.1 mph - N/A   Clear
1:55 PM 78.8 °F - 24.8 °F 14% 29.96 in 10.0 mi ESE 8.1 mph - N/A   Clear
2:15 PM 77.0 °F - 21.2 °F 12% 29.95 in 10.0 mi Calm Calm - N/A   Clear
2:35 PM 77.0 °F - 19.4 °F 12% 29.95 in 10.0 mi ENE 4.6 mph - N/A   Clear
2:55 PM 77.0 °F - 21.2 °F 12% 29.95 in 10.0 mi ENE 6.9 mph - N/A   Clear
3:15 PM 77.0 °F - 19.4 °F 12% 29.94 in 10.0 mi NE 5.8 mph - N/A   Clear
3:35 PM 78.8 °F - 19.4 °F 11% 29.94 in 10.0 mi ENE 3.5 mph - N/A   Clear
3:55 PM 78.8 °F - 19.4 °F 11% 29.94 in 10.0 mi NE 4.6 mph - N/A   Clear
4:15 PM 78.8 °F - 17.6 °F 10% 29.93 in 10.0 mi Calm Calm - N/A   Clear
4:35 PM 77.0 °F - 19.4 °F 12% 29.93 in 10.0 mi NE 6.9 mph - N/A   Clear
4:55 PM 77.0 °F - 19.4 °F 12% 29.93 in 10.0 mi NNE 4.6 mph - N/A   Clear
5:15 PM 77.0 °F - 19.4 °F 12% 29.93 in 10.0 mi East 3.5 mph - N/A   Clear
5:35 PM 75.2 °F - 19.4 °F 12% 29.93 in 10.0 mi ENE 4.6 mph - N/A   Clear
5:55 PM 73.4 °F - 24.8 °F 16% 29.93 in 10.0 mi East 5.8 mph - N/A   Clear
6:15 PM 69.8 °F - 35.6 °F 28% 29.93 in 10.0 mi East 4.6 mph - N/A   Clear
6:35 PM 66.2 °F - 37.4 °F 35% 29.93 in 10.0 mi East 3.5 mph - N/A   Clear
6:55 PM 66.2 °F - 37.4 °F 35% 29.93 in 10.0 mi East 4.6 mph - N/A   Clear
7:15 PM 64.4 °F - 37.4 °F 37% 29.93 in 10.0 mi ESE 3.5 mph - N/A   Clear
7:35 PM 62.6 °F - 39.2 °F 42% 29.93 in 10.0 mi ESE 4.6 mph - N/A   Clear
7:55 PM 62.6 °F - 39.2 °F 42% 29.93 in 10.0 mi East 4.6 mph - N/A   Clear
8:15 PM 60.8 °F - 39.2 °F 45% 29.93 in 10.0 mi East 4.6 mph - N/A   Clear
8:35 PM 60.8 °F - 39.2 °F 45% 29.93 in 10.0 mi East 5.8 mph - N/A   Clear
9:15 PM 59.0 °F - 39.2 °F 48% 29.94 in 10.0 mi ESE 4.6 mph - N/A   Clear
9:35 PM 57.2 °F - 39.2 °F 51% 29.94 in 10.0 mi ESE 3.5 mph - N/A   Clear
9:55 PM 57.2 °F - 39.2 °F 51% 29.95 in 10.0 mi East 3.5 mph - N/A   Clear
10:15 PM 57.2 °F - 41.0 °F 55% 29.94 in 10.0 mi ESE 4.6 mph - N/A   Clear
10:35 PM 55.4 °F - 41.0 °F 58% 29.94 in 10.0 mi ESE 5.8 mph - N/A   Clear
11:15 PM 53.6 °F - 41.0 °F 62% 29.94 in 10.0 mi Calm Calm - N/A   Clear
11:35 PM 55.4 °F - 42.8 °F 63% 29.93 in 10.0 mi East 3.5 mph - N/A   Clear